Regional Weather Roundup
Issued by NWS

Home | Current Version | Previous Version | Text Only | Print | Product List | Glossary Off
Versions: 1 2 3 4 5 6 7 8 9 10 11 12 13 14 15 16 17 18 19 20 21 22 23 24 25 26 27 28 29 30 31 32 33 34 35 36 37 38 39 40 41 42 43 44 45 46 47 48 49 50

000
ASUS43 KMKX 271600
RWRWI

WISCONSIN REGIONAL WEATHER ROUNDUP
NATIONAL WEATHER SERVICE MILWAUKEE/SULLIVAN WI
1100 AM CDT MON APR 27 2015

NOTE: "FAIR" INDICATES FEW OR NO CLOUDS BELOW 12,000 FEET WITH NO
SIGNIFICANT WEATHER AND/OR OBSTRUCTIONS TO VISIBILITY.

WIZ001-002-006>008-014>016-023>028-271700-
NORTHWEST WISCONSIN

CITY           SKY/WX    TMP DP  RH WIND       PRES   REMARKS
SUPERIOR ARPT  SUNNY     56  29  36 E9        30.24S
ASHLAND        SUNNY     55  31  39 NE9       30.24S
HAYWARD        SUNNY     57  28  33 VRB6      30.21F
SIREN          SUNNY     56  24  28 NE5       30.24S
CUMBERLAND     SUNNY     54  27  35 NW9       30.23R
RICE LAKE      SUNNY     55  29  37 N5        30.23S
CHETEK         SUNNY     56  32  40 NW7       30.22S
LADYSMITH      SUNNY     56  30  36 NW13      30.21S
EAU CLAIRE     NOT AVBL
MENOMONIE      SUNNY     55  27  34 CALM      30.23S
NEW RICHMOND   SUNNY     58  26  29 N7        30.24S
OSCEOLA        SUNNY     57  29  34 N5        30.28S
$$

WIZ003>005-009-010-017-018-271700-
NORTH CENTRAL WISCONSIN

CITY           SKY/WX    TMP DP  RH WIND       PRES   REMARKS
MANITOWISH WTR SUNNY     52  29  41 NE8G16    30.18S
ARBOR VITAE    SUNNY     55  30  39 N13G20    30.16S
WOODRUFF       SUNNY     55  30  39 N13G20    30.16S
RHINELANDER    SUNNY     54  29  38 VRB7      30.15F
EAGLE RIVER    SUNNY     53  25  33 N14G23    30.15S
LAND O LAKES   SUNNY     52  28  39 NW16      30.16F
PHILLIPS       SUNNY     55  30  38 N10       30.18S
TOMAHAWK       SUNNY     53  28  38 NW10G18   30.17S
MEDFORD        SUNNY     53  31  43 NW12G17   30.17S
MERRILL        SUNNY     54  31  40 N12G18    30.15S
$$

WIZ029-030-035-036-043>047-271700-
CENTRAL WISCONSIN

CITY           SKY/WX    TMP DP  RH WIND       PRES   REMARKS
WAUSAU         SUNNY     56  29  35 N9        30.13F
MOSINEE        SUNNY     54  30  40 N12       30.16S
MARSHFIELD     SUNNY     57  32  38 NW12      30.17S
STEVENS POINT  SUNNY     53  29  39 NW10G17   30.15F
WAUPACA        SUNNY     56  30  36 N7        30.15S
WAUTOMA        NOT AVBL
WISC RAPIDS    SUNNY     57  28  33 N12       30.18S
CAMP DOUGLAS   NOT AVBL
$$

WIZ011>013-019>022-031-037>040-048>050-271700-
NORTHEAST WISCONSIN

CITY           SKY/WX    TMP DP  RH WIND       PRES   REMARKS
ANTIGO         SUNNY     53  31  44 N16G23    30.13F
SHAWANO        SUNNY     56  32  40 NE12      30.13F
OCONTO         SUNNY     52  33  47 NE8G17    30.12F
STURGEON BAY   SUNNY     48  34  57 N15       30.14F
GREEN BAY      SUNNY     54  36  50 NE13      30.14R
MANITOWOC      NOT AVBL
APPLETON       MOSUNNY   52  32  46 N12       30.14R
CLINTONVILLE   SUNNY     55  30  38 N10G16    30.13S
OSHKOSH        SUNNY     55  34  45 N9G21     30.14R
$$

WIZ032>034-041-042-053>061-271700-
SOUTHWEST WISCONSIN

CITY           SKY/WX    TMP DP  RH WIND       PRES   REMARKS
LA CROSSE      SUNNY     56  31  38 NW6       30.21F
SPARTA         SUNNY     55  28  34 NW8       30.20F
VIROQUA        SUNNY     53  31  43 NW10G16   30.20S
BOSCOBEL       SUNNY     58  30  34 MISG      30.19F
PRAIRIE DU CHI SUNNY     53  30  40 NW6       30.21S
PLATTEVILLE    SUNNY     53  33  46 N9        30.18F
$$

WIZ056-057-062-063-064-067-068-271700-
SOUTH CENTRAL WISCONSIN

CITY           SKY/WX    TMP DP  RH WIND       PRES   REMARKS
REEDSBURG      SUNNY     55  33  42 N9        30.17S
BARABOO/DELLS  SUNNY     55  30  38 N9        30.16F
LONE ROCK      NOT AVBL
MINERAL POINT  SUNNY     54  28  37 NW9       30.18S
MADISON        MOSUNNY   56  32  40 N10       30.16S
MIDDLETON      SUNNY     56  31  38 NW12      30.17S
WATERTOWN      SUNNY     53  34  48 NW12      30.14S
MONROE         SUNNY     52  32  46 N10G17    30.15F
JANESVILLE     SUNNY     55  30  38 NW7       30.14F
$$

WIZ051-052-058>065-066-070>072-271700-
SOUTHEAST WISCONSIN

CITY           SKY/WX    TMP DP  RH WIND       PRES   REMARKS
MILWAUKEE      MOSUNNY   50  33  52 NE13      30.14S
WAUKESHA       MOSUNNY   52  34  50 N14G23    30.14R
MILWAUKEE/TIMM MOSUNNY   54  30  40 N14G22    30.13S
RACINE         SUNNY     50  33  52 N10       30.16R
BURLINGTON     MOSUNNY   51  32  49 NW6       30.13F
KENOSHA        MOSUNNY   53  35  50 N9        30.13S
FOND DU LAC    SUNNY     53  33  46 E5        30.15R
SHEBOYGAN      CLOUDY    53  34  48 N20G26    30.12R
WEST BEND      MOSUNNY   52  32  46 N13       30.12S
JUNEAU         SUNNY     51  33  48 N10       30.15S
$$

LSZ147-162-271700-
LAKE SUPERIOR

STATION/POSITION TIME  TEMP    WIND        PRES    WAVE
                       AIR SEA DIR/SP/G            HT/PER
                 (UTC) (F)     (DEG/KT/KT) (MB)    (FT/S)
W MID LAKE BUOY  1450   38 35  310/  2/  4 1025.0R   0
DEVILS ISLAND    1500   38     250/  6/  8 1025.1R
PORT WING        1540   39     310/  5/  6 1024.4S
SAXON HARBOR     1540   42        CALM     1023.7S
$$

LMZ867-665-643>646-271700-
LAKE MICHIGAN

STATION/POSITION TIME  TEMP    WIND        PRES    WAVE
                       AIR SEA DIR/SP/G            HT/PER
                 (UTC) (F)     (DEG/KT/KT) (MB)    (FT/S)
CHAMBERS ISLAND  1500   43      20/  5/  6 1021.0R
NORTHPORT PIER   1500   40     320/  7/ 10 1020.3S
SISTER BAY       1517   45     360/ 11/ 14   N/A
KEWAUNEE LAKESHO 1518   45      50/ 10/ 12 1019.4R
SHEBOYGAN LAKESH 1500   44      20/  9/ 10 1020.7R
PORT WASHINGTON  1500   48      50/  8/ 11 1020.7R
MILWAUKEE LAKESH 1500   46      30/ 11/ 13   N/A
KENOSHA   LAKESH 1500   44      20/ 16/ 19 1020.3R
$$

TC  - TEMPERATURE IN CELSIUS
VSB - VISIBILITY IN STATUTE MILES
WCI - WIND CHILL INDEX
HX  - HEAT INDEX



USA.gov is the U.S. government's official web portal to all federal, state and local government web resources and services.